Location: Napier
(39.4830°S, 176.9170°E)
Time: 00:41:30
(UTC+13:00)

ISS - Pass Details

Date: 30 January 2019
Orbit: 403 x 411 km, 51.6° (Epoch: 21 February)

Event Time Altitude Azimuth Distance (km) Brightness Sun altitude
Exits shadow 05:26:07 15° 302° (WNW) 1,239 -2.1 -9.8°
Maximum altitude 05:28:50 74° 217° (SW) 437 -3.7 -9.4°
Drops below altitude 10° 05:32:11 10° 131° (SE) 1,496 0.7 -8.8°
Sets 05:34:18 0° 129° (SE) 2,361 2.3 -8.5°
